Location: Napa Junction
(38.1874°N, 122.2508°W)
Time: 00:15:41
(UTC+00:00)

CENTAUR R/B - Pass Details

Date: 11 December 2024
Orbit: 654 x 1528 km, 63.4° (Epoch: 19 January)

Event Time Altitude Azimuth Distance (km) Brightness Sun altitude
Rises 14:35:52 0° 233° (SW) 3,194 4.9 -7.9°
Reaches altitude 10° 14:38:10 10° 240° (WSW) 2,361 4.2 -7.5°
Maximum altitude 14:43:20 43° 312° (NW) 1,249 2.7 -6.6°
Drops below altitude 10° 14:49:44 10° 23° (NNE) 2,909 5.0 -5.4°
Sets 14:52:52 0° 30° (NNE) 4,019 5.8 -4.9°
